This demonstration page uses our WeatherBlox Daily Observations layout. Learn more.

Left ArrowRight Arrow

34.02893, -84.19858

Hourly Observations for March 29, 2016

Temp ( °F °C ) Dew Point ( °F °C ) Humidity (%) Winds ( mph kmh ) Pressure ( in mb ) Visibility ( mi km ) Precip ( " mm )
12:53 am 00:53 Clear 53 11.7 37 2.8 55 55 NW 9 15 30.06 1018 10 16 0.00 0.00
1:53 am 01:53 Clear 50 10 36 2.2 59 59 NNW 7 11 30.05 1018 10 16 0.00 0.00
2:53 am 02:53 Clear 50 10 36 2.2 59 59 NNW 9 15 30.05 1018 10 16 0.00 0.00
3:53 am 03:53 Clear 48 8.9 36 2.2 63 63 W 5 7 30.05 1018 10 16 0.00 0.00
4:53 am 04:53 Clear 44 6.7 36 2.2 73 73 Calm 30.06 1018 10 16 0.00 0.00
5:53 am 05:53 Clear 41 5 37 2.8 86 86 Calm 30.08 1019 10 16 0.00 0.00
6:53 am 06:53 Clear 42 5.6 36 2.2 79 79 W 3 6 30.11 1020 10 16 0.00 0.00
7:53 am 07:53 Sunny 44 6.7 37 2.8 76 76 NNW 7 11 30.12 1020 10 16 0.00 0.00
8:53 am 08:53 Sunny 50 10 38 3.3 63 63 NNW 7 11 30.14 1021 10 16 0.00 0.00
9:53 am 09:53 Sunny 56 13.3 38 3.3 51 51 N 6 9 30.15 1021 10 16 0.00 0.00
10:53 am 10:53 Sunny 60 15.6 36 2.2 41 41 VRB 5 7 30.16 1021 10 16 0.00 0.00
11:53 am 11:53 Sunny 62 16.7 35 1.7 37 37 Calm 30.15 1021 10 16 0.00 0.00
12:53 pm 12:53 Sunny 64 17.8 35 1.7 34 34 VRB 7 11 30.11 1020 10 16 0.00 0.00
1:53 pm 13:53 Sunny 67 19.4 36 2.2 32 32 VRB 3 6 30.11 1020 10 16 0.00 0.00
2:53 pm 14:53 Sunny 69 20.6 34 1.1 27 27 VRB 3 6 30.10 1019 10 16 0.00 0.00
3:53 pm 15:53 Sunny 70 21.1 34 1.1 27 27 Calm 30.08 1019 10 16 0.00 0.00
4:53 pm 16:53 Sunny 71 21.7 34 1.1 26 26 SE 5 7 30.07 1018 10 16 0.00 0.00
5:53 pm 17:53 Sunny 73 22.8 33 0.6 23 23 Calm 30.08 1019 10 16 0.00 0.00
6:53 pm 18:53 Sunny 70 21.1 35 1.7 28 28 SSE 8 13 30.09 1019 10 16 0.00 0.00
7:53 pm 19:53 Sunny 67 19.4 36 2.2 32 32 SE 3 6 30.10 1019 10 16 0.00 0.00
8:53 pm 20:53 Clear 62 16.7 39 3.9 43 43 Calm 30.11 1020 10 16 0.00 0.00
9:53 pm 21:53 Clear 62 16.7 38 3.3 41 41 Calm 30.12 1020 10 16 0.00 0.00
10:53 pm 22:53 Clear 56 13.3 39 3.9 53 53 Calm 30.14 1021 10 16 0.00 0.00
11:53 pm 23:53 Clear 52 11.1 40 4.4 64 64 Calm 30.15 1021 10 16 0.00 0.00

Powered by AerisWeather